Location: Gaast
(52.9002°N, 5.8891°E)
Time: 02:00:18
(UTC+00:00)

SJ-6F - Pass Details

Date: 18 November 2025
Orbit: 543 x 570 km, 97.9° (Epoch: 13 December)

Event Time Altitude Azimuth Distance (km) Brightness Sun altitude
Rises 17:00:29 0° 157° (SSE) 2,697 7.8 -12.3°
Reaches altitude 10° 17:02:36 10° 154° (SSE) 1,809 6.9 -12.6°
Maximum altitude 17:06:28 68° 72° (ENE) 593 4.2 -13.1°
Drops below altitude 10° 17:10:24 10° 350° (N) 1,830 6.9 -13.7°
Sets 17:12:32 0° 348° (NNW) 2,732 7.9 -14.0°
